Satellite-Ground Cal/Val Site Overpasses Predictions

Prediction of Satellite NPP Overpassing Cal/Val Site: Antarctic Dome C

Ground Cal/Val Site Location: Latitude: -75.10, Longitude: 123.35; Satellite-Ground Site NADIR distance within 100 km.

Table of predicted overpasses for the next 14.0 days since TLE Epoch: 3/22/2019
Interval Starting Time Ending Time Minimum Distance Time Minimum Distance (km)
1 03/24/2019 14:54:38 03/24/2019 14:55:07 03/24/2019 14:54:53 20.83
2 03/25/2019 14:35:55 03/25/2019 14:36:10 03/25/2019 14:36:02 86.25
3 03/26/2019 07:37:27 03/26/2019 07:37:55 03/26/2019 07:37:41 35.18
4 03/27/2019 07:18:42 03/27/2019 07:19:01 03/27/2019 07:18:51 74.94
5 03/29/2019 15:00:54 03/29/2019 15:01:18 03/29/2019 15:01:06 57.59
6 03/30/2019 14:42:03 03/30/2019 14:42:28 03/30/2019 14:42:16 51.65
7 03/31/2019 07:43:44 03/31/2019 07:44:05 03/31/2019 07:43:54 70.13
8 04/01/2019 07:24:50 04/01/2019 07:25:17 04/01/2019 07:25:04 37.92
9 04/03/2019 15:07:15 04/03/2019 15:07:23 04/03/2019 15:07:19 94.91


NCC Satellite Cal/Val Overpasses Prediction Service
